GFSGBSN_2pvu_pres_117.txt.gz
Presure
238 261 205 245 268 275 284 322 298 182 182 167 234 203 124 171 126 185 141 176 140 158 140 142 153 128 151 139 135 128 119 125 131 208 138 150 259 143 151 164 166 178 220 199 179 175 167
250 265 257 256 288 344 300 334 333 294 274 320 281 226 169 127 169 157 166 132 171 136 158 179 159 132 126 126 150 128 127 162 138 126 143 248 165 147 182 209 212 159 146 156 159 158 183
241 254 198 191 272 278 296 301 334 331 277 300 312 290 247 234 200 138 136 150 133 179 132 197 186 167 121 179 132 128 127 135 157 236 246 151 253 139 238 141 167 147 142 154 100 159 112
252 246 254 267 292 326 283 289 326 324 324 310 306 196 279 287 253 215 128 132 150 182 124 121 157 128 120 139 117 126 141 153 148 235 147 206 155 242 119 130 121 113 120 128 168 140 114
246 255 267 279 287 298 328 320 296 312 309 316 297 310 293 314 281 256 229 227 133 150 148 119 141 153 194 130 127 157 137 234 145 242 139 161 172 129 158 97 121 153 135 170 129 133 112
255 273 274 310 381 366 361 366 332 304 303 320 306 295 308 287 287 269 234 171 208 156 146 121 128 180 147 208 157 188 168 218 233 249 128 117 111 115 106 146 165 172 169 125 164 140 129
279 284 319 368 370 367 363 352 356 309 349 310 320 305 301 303 285 199 279 241 134 200 189 120 196 213 184 120 125 167 196 130 252 151 147 133 109 114 111 116 173 126 332 357 338 335 356
310 348 395 394 387 377 387 364 356 353 313 354 352 333 265 289 279 274 252 271 245 173 210 125 191 134 206 124 183 178 147 246 181 109 166 160 143 116 117 146 171 379 377 373 377 386 405
409 402 410 412 404 390 384 401 380 304 313 359 360 361 296 291 279 287 157 213 240 201 191 211 193 222 183 127 150 179 144 248 153 234 136 155 115 393 142 360 467 464 455 467 438 425 425
428 442 462 442 419 405 387 380 389 392 419 418 367 316 299 282 302 267 232 249 249 168 181 188 224 139 133 132 211 156 250 158 137 166 109 116 112 118 172 447 449 463 446 477 461 480 356
467 440 436 439 444 430 405 389 388 394 441 343 317 235 281 291 283 269 227 249 244 232 220 146 193 135 198 258 137 237 128 121 128 177 161 126 423 464 497 386 401 381 401 413 240 156 141
459 450 447 461 473 460 448 422 417 437 455 317 292 282 277 214 242 239 225 243 239 238 236 230 243 133 241 197 238 148 196 119 142 157 260 205 450 388 367 359 352 354 372 357 363 383 334
406 394 405 456 447 455 447 426 474 457 291 301 275 292 254 122 244 164 214 237 231 237 241 243 213 246 171 179 184 141 153 274 224 116 334 200 373 360 350 334 331 336 361 342 351 347 368
389 390 399 388 406 426 446 191 489 314 298 281 291 287 119 250 237 207 165 225 231 234 238 148 224 211 138 156 161 109 386 407 157 152 167 362 348 345 335 328 329 341 347 335 347 334 375
386 382 411 386 434 441 383 336 303 291 278 267 240 252 247 226 237 237 229 225 215 217 217 223 205 248 182 174 203 118 179 153 151 321 189 347 342 335 326 323 338 330 333 344 330 353 285
384 400 398 388 436 418 289 305 185 295 245 258 251 250 234 235 235 172 226 227 216 219 202 189 241 199 139 166 293 371 186 272 147 306 359 353 337 331 327 321 324 355 350 345 347 346 322
415 401 369 342 278 306 302 278 274 271 263 255 245 230 216 236 152 222 222 224 196 202 188 230 221 142 140 158 147 118 161 132 226 264 369 355 341 328 322 325 323 369 323 322 309 340 349
324 318 255 296 276 278 275 266 265 238 249 241 233 249 236 223 226 222 206 223 203 187 226 217 209 136 220 138 262 138 174 204 152 356 345 336 351 340 319 327 311 331 337 321 332 322 379
321 305 262 263 235 249 261 261 252 246 239 240 237 232 227 227 211 213 209 202 187 220 212 208 143 145 106 115 113 250 375 280 366 343 344 349 355 347 343 326 352 313 325 313 314 325 301
247 232 231 257 220 265 253 254 245 239 233 234 232 230 218 217 214 201 198 215 210 210 208 199 186 199 117 256 143 232 161 139 301 256 348 340 349 338 333 368 326 323 315 332 329 341 311
288 255 276 254 249 253 253 228 245 238 232 230 231 167 210 203 199 200 175 220 212 207 202 196 168 169 166 147 195 182 252 253 256 367 362 353 355 350 346 352 352 322 324 335 334 343 265
247 243 288 279 254 247 252 246 229 229 231 223 211 205 211 203 190 183 222 215 206 201 195 140 176 174 144 217 247 137 148 259 195 277 322 350 331 348 361 353 365 325 337 339 348 349 328
254 227 291 253 259 237 239 228 233 232 223 210 209 205 204 198 195 228 200 206 204 197 195 182 199 155 169 222 214 139 134 259 126 177 270 302 341 348 345 335 369 372 334 326 335 340 324
248 238 219 242 264 237 239 239 238 224 213 171 207 211 182 185 199 215 208 206 200 194 188 180 160 144 170 129 187 120 245 145 162 170 141 260 268 281 311 359 344 348 373 363 338 347 331
268 255 234 237 257 223 241 238 232 215 189 198 186 186 186 193 194 217 202 200 198 190 186 179 156 181 148 144 141 145 149 154 185 125 138 240 228 245 291 258 284 360 353 339 333 351 366
228 273 263 234 258 239 236 233 221 214 214 191 181 184 202 194 224 211 204 198 192 188 184 180 135 163 157 107 175 112 209 203 138 203 128 125 240 246 241 234 252 270 258 268 363 372 360
285 284 276 247 265 219 142 233 227 161 208 213 187 180 203 179 221 217 204 199 191 187 181 177 155 168 163 143 158 144 198 196 185 182 125 221 221 191 242 244 253 239 265 255 265 260 264
299 250 279 254 244 197 195 240 173 212 207 174 191 182 210 191 219 218 205 199 190 186 181 177 178 180 176 167 139 156 176 129 194 190 209 206 158 221 220 216 214 245 231 238 234 269 280
278 281 307 251 269 231 230 243 220 214 196 196 206 190 176 182 184 213 212 200 193 183 180 178 173 173 167 174 181 143 159 175 160 203 141 139 174 185 217 226 225 217 229 253 222 248 259

GFSGBSN_2pvu_pres_120.txt.gz
Presure
215 217 194 260 254 251 239 253 258 232 267 266 270 295 242 298 293 200 237 175 192 199 200 203 155 189 186 189 141 131 218 168 125 150 133 126 148 171 145 163 144 184 142 158 244 245 247
251 252 230 194 145 254 203 256 259 251 279 272 283 326 298 295 290 281 256 253 189 143 142 121 146 158 142 172 136 145 125 132 179 131 137 137 158 132 148 204 241 152 159 189 249 279 201
244 232 242 243 252 194 252 203 274 275 296 277 302 224 284 331 303 316 268 189 146 177 232 137 137 143 133 133 171 132 122 143 130 156 137 141 140 132 150 134 189 234 163 163 162 159 167
242 248 253 251 264 263 266 289 306 278 329 325 341 311 322 297 313 308 289 266 304 229 221 144 143 139 147 132 139 127 132 196 159 118 137 190 165 223 148 250 160 161 230 131 152 158 198
255 260 270 289 297 304 330 365 381 383 370 364 341 312 313 272 313 309 317 302 161 276 224 160 153 183 149 221 128 129 151 131 128 143 157 129 155 192 236 206 207 206 145 157 299 139 144
311 318 341 399 415 409 393 389 383 375 370 356 347 314 290 267 285 312 311 298 299 284 198 272 247 135 169 203 133 186 186 212 131 154 134 129 228 240 269 148 191 136 134 111 132 114 180
412 430 471 466 460 453 437 405 384 376 371 362 351 329 297 285 305 325 300 120 126 225 277 265 257 131 205 117 159 126 131 144 152 123 213 248 242 282 90 203 155 124 118 189 112 184 123
475 521 472 457 435 435 439 434 401 382 379 365 354 350 308 301 314 304 299 127 285 251 231 249 195 160 133 123 219 234 169 176 147 258 263 198 218 206 132 110 143 178 125 158 157 137 125
407 410 416 400 421 430 412 435 413 385 376 377 356 359 315 307 336 305 284 281 258 246 243 255 256 227 192 133 147 174 212 225 178 222 204 180 199 173 145 169 142 127 128 129 405 398 360
380 372 380 406 395 437 452 433 407 382 373 385 367 371 375 337 305 285 264 248 241 186 245 246 182 253 232 126 163 269 210 136 216 272 175 202 153 361 181 169 475 467 132 282 450 481 463
357 374 366 398 401 428 474 446 405 387 388 406 383 398 360 305 271 192 254 240 237 190 184 187 247 257 243 143 152 134 135 253 232 352 176 197 183 150 168 218 271 379 128 420 428 448 475
358 363 370 375 391 411 436 450 405 390 400 427 399 338 272 264 261 247 235 239 234 234 238 242 254 259 258 235 219 217 240 226 237 260 398 163 169 179 346 347 363 361 364 368 398 406 428
383 388 378 378 401 411 416 472 421 410 360 346 307 282 261 243 242 236 237 229 232 200 240 250 215 229 199 241 211 221 186 268 376 296 123 160 175 349 339 361 347 346 357 350 380 363 352
442 503 447 391 423 429 347 466 358 368 321 301 277 265 249 238 241 237 175 228 181 216 246 243 242 201 216 214 210 431 391 190 174 154 118 353 311 348 352 346 327 342 344 356 357 338 366
205 276 329 338 358 366 358 319 314 290 270 269 251 240 238 234 143 233 235 227 181 236 188 230 198 212 202 208 287 160 108 146 168 181 337 308 340 300 339 338 330 327 338 331 329 337 354
222 251 229 277 266 255 250 255 266 251 254 244 238 239 228 129 231 237 168 231 227 223 219 211 216 197 198 298 258 294 143 370 311 289 334 334 320 326 354 339 352 310 324 338 357 321 337
242 266 246 237 260 264 264 259 132 252 240 251 243 237 205 202 233 231 177 218 220 215 213 220 196 194 273 195 365 299 356 157 367 299 333 328 328 337 343 324 316 330 318 324 330 321 317
226 247 250 261 185 256 248 246 227 246 239 237 237 232 235 227 222 220 207 215 177 208 220 202 202 208 164 271 316 117 155 342 358 354 348 324 314 311 330 321 336 304 325 339 357 318 324
230 228 254 265 170 252 243 236 248 228 225 230 235 227 226 220 214 211 193 199 214 217 206 220 181 254 229 254 175 209 155 304 354 360 359 349 324 327 323 315 309 323 310 318 284 306 316
277 235 264 266 248 183 213 232 233 242 224 228 225 216 219 200 211 201 219 212 212 209 194 212 190 176 186 249 134 156 135 263 297 330 353 348 366 325 326 312 328 311 309 324 318 323 268
284 253 224 205 201 200 198 243 234 225 228 225 218 216 206 207 206 223 214 212 208 198 189 167 153 179 221 170 206 207 182 311 195 229 359 360 372 357 336 331 331 338 323 305 315 312 287
296 268 256 216 200 238 247 239 227 229 218 216 211 208 211 201 219 181 208 207 204 196 181 163 203 226 155 176 222 128 112 258 131 298 352 346 372 377 349 336 338 343 333 342 319 328 301
253 280 265 236 227 233 237 235 235 216 218 205 211 210 211 210 189 209 204 205 198 190 192 172 194 183 210 167 140 183 124 233 194 182 252 263 344 358 372 366 347 330 330 338 346 321 299
192 272 276 245 229 241 193 235 225 219 206 212 209 184 204 191 215 207 202 200 195 189 180 168 180 195 207 208 116 183 206 121 116 213 253 266 253 262 299 355 371 366 361 351 355 347 326
225 238 288 277 227 233 231 234 221 212 207 155 200 202 200 219 211 205 201 198 195 188 181 177 176 182 180 194 138 142 202 135 227 208 127 175 248 252 247 241 272 359 345 346 362 351 346
205 250 295 275 274 254 207 233 230 212 154 205 176 201 188 223 200 204 204 198 193 187 184 174 181 193 160 150 140 150 118 144 132 145 147 141 224 255 241 241 273 235 253 268 368 375 379
208 235 207 347 315 258 238 214 232 211 217 207 201 177 175 201 217 202 203 198 193 187 182 178 172 178 159 190 191 187 202 163 140 192 127 150 212 214 227 231 240 261 232 242 242 233 342
212 253 187 247 358 269 255 228 233 223 206 204 206 192 174 202 204 209 203 200 195 188 184 178 176 153 183 169 174 152 180 193 167 191 120 177 139 225 227 214 208 230 221 237 233 235 249
187 245 206 289 333 344 260 259 217 206 165 197 207 186 192 179 219 221 207 203 196 191 185 178 178 159 108 115 150 185 196 187 197 174 143 141 158 211 136 243 234 217 238 237 223 248 244

GFSGBSN_2pvu_pres_126.txt.gz
Presure
252 441 417 392 398 383 348 298 279 282 262 264 256 263 260 261 254 246 261 264 261 266 275 293 268 258 219 153 166 149 170 172 179 142 124 131 121 165 191 145 137 120 157 144 157 132 140
254 441 445 432 437 394 386 391 355 308 298 271 267 262 259 263 260 262 259 244 262 276 256 264 173 282 289 150 140 187 145 136 120 148 149 158 181 145 148 136 130 145 190 118 147 131 141
236 247 389 375 365 373 386 434 386 301 298 320 277 267 263 258 266 269 278 250 274 239 271 247 271 293 294 353 229 284 146 152 152 145 202 135 199 146 148 160 134 144 214 133 134 149 123
227 319 406 376 365 361 369 411 412 467 397 301 323 300 267 124 263 269 269 251 263 282 271 284 265 261 333 338 331 328 328 145 203 202 204 162 160 135 132 173 211 202 133 151 141 134 127
232 258 355 377 372 373 370 413 388 430 450 477 230 326 307 289 258 232 270 270 277 261 248 277 263 336 327 311 324 317 321 227 279 240 219 131 137 161 153 196 197 142 205 235 122 142 128
295 255 397 391 387 372 365 385 405 419 423 459 431 342 343 311 300 293 276 270 262 284 232 253 323 342 320 315 213 214 303 303 240 145 115 135 188 141 158 211 154 142 190 128 145 140 134
172 327 350 408 398 380 378 396 403 458 428 446 424 401 393 355 343 311 310 304 293 299 375 359 335 319 279 281 278 233 149 135 135 133 292 292 182 142 152 123 140 150 137 129 139 134 186
281 307 338 408 410 392 391 404 485 430 426 435 403 401 395 395 393 379 386 379 354 378 337 285 280 195 228 262 269 251 246 167 171 139 134 137 223 115 145 159 158 133 187 281 211 140 156
246 293 246 389 429 425 414 443 436 429 431 409 395 397 392 387 386 386 383 381 329 282 255 255 255 225 264 270 242 173 275 128 253 218 160 201 125 139 295 252 236 125 163 273 247 157 239
219 284 325 421 489 490 465 434 423 424 420 399 398 395 391 392 310 276 267 266 256 252 257 248 257 259 156 239 216 151 269 254 126 124 125 141 290 175 141 167 253 281 153 171 181 145 243
244 258 272 320 442 436 437 430 419 412 398 386 270 271 275 245 261 256 251 254 250 252 262 250 255 249 235 263 268 272 254 268 183 129 176 255 251 173 247 134 141 190 144 375 95 118 109
215 200 259 293 287 287 293 294 286 282 277 261 263 264 261 254 251 249 252 242 243 245 235 235 242 203 255 246 242 252 249 234 253 222 281 235 132 144 125 380 314 286 283 229 308 127 189
200 207 214 225 256 275 271 276 273 270 256 252 256 253 243 253 243 236 234 225 221 221 225 226 226 236 236 349 334 353 342 348 221 374 371 150 278 176 122 240 177 163 165 205 272 181 285
251 242 221 210 223 252 257 267 265 257 253 251 251 246 233 241 227 218 215 209 217 215 215 224 307 456 437 399 386 372 364 356 359 177 368 340 141 353 191 334 315 159 144 334 330 339 316
257 230 235 236 204 238 231 229 238 245 248 239 231 226 222 217 213 206 202 199 205 191 209 189 396 423 416 385 380 356 158 345 269 217 160 280 332 343 337 304 319 173 310 312 313 317 332
208 242 249 237 204 231 203 222 216 219 218 219 217 185 213 211 202 207 205 168 227 194 204 262 288 407 403 401 284 354 262 344 344 355 327 331 337 335 323 213 317 319 310 307 330 319 353
178 207 193 249 229 193 195 215 213 210 210 209 212 209 202 205 124 196 160 205 212 231 227 201 297 314 224 245 381 238 174 335 356 330 325 184 322 318 317 305 298 289 296 298 298 322 319
196 199 214 264 250 216 207 207 209 202 204 205 199 203 202 132 173 207 193 203 212 241 241 224 232 271 294 373 183 154 166 149 327 130 125 267 323 313 301 312 302 298 297 295 310 313 307
182 178 200 203 236 251 228 213 204 211 203 201 208 196 186 199 208 199 200 223 194 231 245 238 192 247 296 270 269 389 136 325 319 297 313 265 327 302 310 304 297 307 312 277 290 291 292
171 184 198 202 201 221 249 236 210 198 200 204 202 207 197 203 209 202 196 186 195 213 228 223 242 177 178 276 147 152 390 395 338 259 227 308 329 312 291 283 295 297 290 293 283 283 278
186 175 191 181 204 218 223 237 199 207 199 205 211 199 198 201 207 200 200 186 184 216 218 194 219 234 152 236 148 138 132 331 173 346 341 326 322 310 302 293 292 291 290 283 288 293 257
188 186 195 195 201 204 219 208 263 222 221 153 200 218 192 177 205 204 200 195 188 193 185 175 203 134 232 235 154 127 270 106 263 356 327 345 320 330 310 303 291 297 289 288 282 292 266
157 176 198 199 185 176 209 194 215 169 237 225 224 182 215 189 204 200 203 196 190 187 189 196 195 191 174 153 130 132 133 129 181 148 271 367 353 336 328 326 306 301 295 297 287 293 265
190 192 181 183 192 187 180 211 216 215 268 247 235 214 217 181 206 201 199 198 193 187 171 184 206 197 213 190 224 213 107 145 172 134 253 259 300 373 357 327 325 315 306 301 298 273 260
172 196 186 190 178 195 203 195 207 218 215 276 242 154 209 199 208 203 204 198 197 190 184 177 187 185 210 209 146 207 193 206 124 161 134 161 262 264 289 382 368 339 316 302 292 301 271
192 189 193 190 203 176 194 197 213 203 226 229 281 185 244 204 177 195 209 208 199 196 187 189 178 161 159 181 176 152 123 140 126 132 219 159 120 262 252 264 353 372 365 343 326 301 294
155 189 204 184 202 190 188 205 171 214 224 227 244 278 164 237 201 178 186 178 209 203 194 188 186 190 177 200 183 176 146 106 193 166 193 124 120 225 255 226 250 306 388 397 360 342 305
195 176 187 195 179 192 208 200 172 186 241 240 229 288 272 232 239 195 198 193 206 206 205 195 187 190 180 160 180 139 158 155 145 144 123 216 119 188 180 233 224 250 275 347 301 322 297
202 194 189 181 181 204 202 195 226 224 226 248 253 275 284 265 239 170 199 181 182 198 205 207 195 186 172 180 168 160 185 193 169 131 183 138 220 189 227 174 181 203 232 172 254 270 275

GFSGBSN_2pvu_pres_129.txt.gz
Presure
236 170 246 289 421 376 368 383 398 378 364 285 317 269 201 269 262 254 268 254 262 249 272 242 262 275 205 244 219 178 177 193 150 134 159 132 135 143 128 117 125 128 133 145 149 133 156
216 256 242 436 415 377 368 367 364 386 374 370 303 315 246 268 256 266 257 270 253 259 252 257 259 259 267 280 273 292 226 229 149 138 170 136 207 133 121 141 126 141 125 139 207 168 153
256 278 211 422 395 371 374 373 360 372 387 450 382 321 236 267 257 261 266 272 245 266 273 273 261 250 275 260 294 275 273 269 266 146 140 139 133 120 166 125 135 128 202 150 124 238 132
285 366 421 370 377 405 372 361 369 369 390 431 494 350 275 292 272 275 273 267 269 261 269 268 279 270 238 269 252 314 310 195 287 172 302 237 133 156 135 135 141 145 193 142 187 152 158
281 423 358 403 388 394 395 387 373 374 405 422 475 438 340 319 270 267 278 250 257 276 275 280 252 283 297 268 269 262 263 204 274 319 166 153 154 141 139 158 153 120 125 206 182 154 229
256 389 442 401 420 422 389 390 404 415 417 439 464 442 353 298 311 298 236 283 242 283 260 275 278 285 287 273 294 334 361 312 267 332 152 154 225 155 214 268 143 162 189 166 148 162 224
240 300 472 421 498 431 425 437 457 498 461 459 448 421 382 325 278 294 318 321 297 273 276 258 234 287 221 301 375 353 339 329 319 315 310 133 318 310 130 319 133 130 148 168 194 190 137
203 239 253 455 494 487 475 459 456 448 440 422 430 420 405 379 366 285 218 340 337 323 316 325 207 319 369 308 318 311 309 306 290 307 301 169 200 208 311 158 141 202 152 202 132 138 129
206 217 235 261 312 318 360 377 376 430 422 426 420 422 429 393 393 393 337 336 331 321 280 287 299 299 295 295 291 292 293 299 298 236 199 141 149 164 131 123 237 149 129 143 183 133 148
231 223 221 226 238 284 296 296 295 288 290 293 293 290 287 284 282 277 270 267 261 97 281 272 274 273 271 268 202 152 146 169 216 196 163 146 138 179 129 129 124 132 292 152 230 288 153
230 227 222 217 219 223 242 266 267 269 268 267 266 258 256 255 250 246 240 242 237 247 235 231 242 245 255 127 142 137 151 255 188 125 122 271 122 264 148 201 130 257 136 147 191 160 301
256 229 228 229 223 213 215 222 230 237 238 238 240 239 238 230 229 228 229 225 222 239 245 325 320 326 317 308 243 282 283 267 192 196 265 285 272 179 284 285 267 283 160 375 354 130 284
217 254 240 225 218 212 216 218 218 217 218 226 238 223 218 232 237 227 216 233 234 231 234 408 415 396 413 397 391 386 380 384 365 377 337 334 343 341 219 298 229 156 348 350 104 143 141
209 220 242 250 198 214 215 210 208 207 208 208 204 206 207 204 199 206 203 202 207 198 275 394 287 412 397 378 374 363 356 360 373 360 363 341 213 141 153 328 333 341 345 356 131 342 108
184 201 220 228 257 231 216 216 206 201 196 206 199 208 188 193 196 223 232 211 214 233 236 268 432 411 397 373 360 354 346 333 350 337 158 196 238 191 315 192 334 280 311 332 346 167 160
198 203 192 213 200 257 247 202 201 219 199 192 195 199 213 179 186 168 187 197 247 241 249 233 322 410 410 303 288 270 153 335 334 330 337 346 317 304 323 321 316 324 326 317 309 311 308
161 183 189 202 201 181 251 255 210 198 217 188 182 186 181 178 200 189 218 233 221 247 230 238 247 230 391 399 372 371 371 216 294 188 338 262 325 305 288 316 328 320 305 298 298 305 310
187 167 195 193 184 204 189 228 264 247 194 165 160 207 126 188 179 210 188 195 212 210 241 244 241 244 198 168 168 168 165 152 146 125 313 311 301 295 306 329 308 296 292 285 290 303 294
172 193 190 190 196 180 207 218 236 261 254 221 199 223 214 209 193 195 202 205 195 224 228 242 245 238 153 236 193 317 350 136 244 291 320 313 310 316 295 303 305 279 284 283 289 291 295
192 175 170 181 173 206 187 185 233 205 230 260 171 207 179 217 214 199 191 207 181 182 219 206 229 221 236 166 207 242 248 329 177 329 319 242 299 323 290 302 296 282 289 276 280 285 273
175 160 170 182 197 165 201 196 205 238 240 154 260 245 213 189 199 217 202 190 199 198 178 214 193 186 172 240 210 230 147 255 147 339 341 274 308 292 317 296 294 279 271 281 260 276 259
169 190 174 169 175 192 165 191 213 204 252 231 259 161 241 199 200 223 216 200 184 196 171 145 212 191 223 228 232 173 151 245 184 388 109 319 314 303 311 296 284 280 269 257 271 270 281
154 153 159 187 194 190 195 183 171 219 236 256 244 274 213 243 200 200 186 213 200 194 192 197 182 164 175 219 210 140 132 150 202 168 343 241 226 308 303 284 293 281 269 276 271 276 269
172 164 167 181 180 181 193 175 190 197 259 219 253 283 272 251 241 204 205 195 211 203 189 201 184 196 181 174 159 180 189 133 156 195 130 157 400 347 326 306 282 279 274 270 256 259 260
153 174 172 169 163 164 184 204 189 197 217 291 230 283 295 273 237 200 194 202 221 208 205 198 180 192 190 170 178 200 149 227 126 186 212 217 307 211 383 337 318 280 267 267 260 260 267
166 195 177 168 168 182 179 173 176 203 171 254 184 209 362 296 272 254 237 153 195 205 215 207 189 199 198 176 177 212 156 162 147 147 131 201 238 212 391 390 346 317 279 267 273 251 249
181 170 176 162 176 188 197 178 177 175 198 169 214 217 249 353 299 269 251 238 173 195 199 215 207 179 199 162 193 177 202 188 190 137 185 140 131 222 183 149 410 326 315 317 257 264 222
187 191 207 180 158 171 165 201 168 201 191 213 176 284 239 260 355 296 263 249 238 216 206 197 205 211 179 180 189 165 178 181 142 207 139 213 198 233 220 147 277 297 300 294 262 263 260
189 177 166 173 180 202 200 182 164 186 201 186 201 194 211 247 294 347 289 257 248 235 163 211 196 219 213 167 188 190 168 151 187 186 129 163 166 120 223 185 199 233 245 299 280 268 262